Regional Weather Roundup
Issued by NWS

Home | Current Version | Previous Version | Graphics & Text | Print | Product List | Glossary On
Versions: 1 2 3 4 5 6 7 8 9 10 11 12 13 14 15 16 17 18 19 20 21 22 23 24 25 26 27 28 29 30 31 32 33 34 35 36 37 38 39 40 41 42 43 44 45 46 47 48 49 50
000
ASUS43 KMPX 281210
RWRMN
WEATHER ROUNDUP FOR MINNESOTA
NATIONAL WEATHER SERVICE TWIN CITIES/CHANHASSEN MN
700 AM CDT SUN AUG 28 2016


NOTE: "FAIR" INDICATES FEW OR NO CLOUDS BELOW 12,000 FEET WITH NO
SIGNIFICANT WEATHER AND/OR OBSTRUCTIONS TO VISIBILITY. N/A MEANS
CURRENT SKY AND/OR WEATHER CONDITIONS ARE NOT AVAILABLE.

MNZ060>063-068>070-281300-
   Twin Cities Metro

CITY           SKY/WX    TMP DP  RH WIND       PRES   REMARKS
TWIN CITIES    FOG       62  60  93 SE5       30.14R VSB 1/4
6HR MIN TEMP:  61; 6HR MAX TEMP:  65;

ST PAUL        CLOUDY    61  60  97 NE5       30.15R
CRYSTAL        FOG       59  57  93 CALM      30.13R VSB<1/4
BLAINE         FOG       63  63 100 CALM      30.13R VSB 1/4
LAKEVILLE      FOG       55  55 100 CALM      30.14R VSB<1/4
EDEN PRAIRIE   CLOUDY    63  60  90 E3        30.13R FOG
6HR MIN TEMP:  61; 6HR MAX TEMP:  63;

LAKEVILLE      FOG       55  55 100 CALM      30.14R VSB<1/4
SOUTH ST PAUL  FOG       61  61  99 CALM      30.14R VSB 1/4
LAKE ELMO      CLOUDY    61  61 100 E3        30.16R FOG
$$
MNZ001>005-007-008-013>017-022>024-027-028-281300-
   Northwest Minnesota

CITY           SKY/WX    TMP DP  RH WIND       PRES   REMARKS
BEMIDJI        CLOUDY    58  58 100 S6        30.09S FOG
HALLOCK        CLEAR     57  55  94 SE9       29.99S
ROSEAU         CLEAR     50  45  81 CALM      30.05R
WARROAD          N/A     52  48  87 CALM      30.06R FOG
THIEF RVR FALL CLEAR     55  54  96 SE7       30.04S
CROOKSTON      CLEAR     57  57 100 S7        30.01S
FOSSTON        CLEAR     57  57 100 SE8       30.06R
DETROIT LAKES  CLOUDY    61  59  94 SE10      30.07S FOG
MOORHEAD       CLEAR     63  61  94 SE9       30.02R
PARK RAPIDS    FOG       61  59  93 SE8       30.10R VSB 3/4
MAHNOMEN       FAIR      59  58  96 SE9       30.05R
$$
MNZ006-009>011-018-025>026-281300-
   North Central Minnesota

CITY           SKY/WX    TMP DP  RH WIND       PRES   REMARKS
BAUDETTE       FOG       55  55 100 S7        30.07R VSB 1/4
FLAG ISLAND    CLEAR     63  61  94 CALM      30.05R FOG
INTL FALLS     FOG       57  56  96 VRB3      30.11R VSB 1/4
6HR MIN TEMP:  52; 6HR MAX TEMP:  57;

WASKISH          N/A     59  59 100 S5        30.09R FOG
BIG FORK       CLOUDY    59  57  94 S5        30.12R FOG
LONGVILLE      CLOUDY    61  59  94 S5        30.13R FOG
GRAND RAPIDS   CLOUDY    59  58  96 SE5       30.14S FOG
CRANE LAKE     CLOUDY    54  54 100 CALM      30.14R VSB 3/4
ORR            FOG       55  52  88 CALM      30.10F VSB 1/4
COOK           FOG       55  55 100 S6        30.14R VSB 1
WALKER         CLOUDY    59  58  97 S6        30.11R
$$
MNZ012-019>021-037-281300-
   Northeast Minnesota

CITY           SKY/WX    TMP DP  RH WIND       PRES   REMARKS
DULUTH         CLOUDY    59  59 100 SW6       30.14R
6HR MIN TEMP:  55; 6HR MAX TEMP:  60;

ELY            FOG       52  50  93 CALM      30.14S VSB 1/4
HIBBING        FOG       55  55 100 CALM      30.14R VSB 1/4
EVELETH        FOG       57  57  99 SW6       30.15S VSB 3/4
DULUTH HARBOR  CLOUDY    61  59  94 S8        30.15R
TWO HARBORS    CLOUDY    55  52  88 CALM      30.13S
SILVER BAY     CLOUDY    54  54 100 CALM      30.13S
GRAND MARAIS     N/A     56  54  93 CALM      30.14R
G MARAIS ARPRT CLEAR     52  48  87 CALM      30.17R
$$
MNZ029>031-032-039>041-046>048-054>057-064-281300-
   West Central Minnesota

CITY           SKY/WX    TMP DP  RH WIND       PRES   REMARKS
FERGUS FALLS   CLOUDY    63  63 100 SE8       30.06S
WHEATON        CLOUDY    63  61  94 SE13      30.05S
MORRIS         TSTM      64  63  94 CALM      30.07R
ALEXANDRIA     CLOUDY    63  62  97 NE6       30.10R
ELBOW LAKE     FAIR      62  62  97 SE7       30.07R
WADENA         CLOUDY    61  61 100 SE6       30.09R FOG
GLENWOOD       CLOUDY    63  63 100 SE12      30.07S
APPLETON       TSTM      64  61  88 CALM      30.08R
BENSON         CLOUDY    63  61  94 S7        30.07R
ORTONVILLE     CLOUDY    63  59  88 SE6       30.05R
MADISON        CLOUDY    63  61  94 SE8       30.06F
WILLMAR        TSTM      64  64 100 S10       30.10F
$$
MNZ033>034-036-042>043-049>051-058-059-281300-
   Central Minnesota

CITY           SKY/WX    TMP DP  RH WIND       PRES   REMARKS
ST CLOUD       FOG       60  60 100 CALM      30.12S VSB 1/4
6HR MIN TEMP:  60; 6HR MAX TEMP:  61;

SAUK CENTRE    LGT RAIN  60  60 100 SE9       30.08F
PAYNESVILLE    LGT RAIN  61  61 100 SE5       30.12R
AITKIN         CLOUDY    64  59  82 CALM      30.11S HAZE
PINE RIVER     CLOUDY    61  61 100 SE3       30.15R FOG
BRAINERD       FOG       60  60 100 SE5       30.12R VSB 1/4
STAPLES        CLOUDY    59  59 100 SE3       30.10S FOG
LONG PRAIRIE   LGT RAIN  59  59 100 E7        30.09S
LITTLE FALLS   LGT RAIN  61  59  94 E3        30.11S
LITCHFIELD     CLOUDY    63  61  94 CALM      30.14R FOG
BUFFALO        FOG       59  58  96 NE3       30.13S VSB 3/4
MAPLE LAKE     FOG       62  62  99 E5        30.14S VSB 1/2
HUTCHINSON     PTCLDY    61  61 100 CALM      30.13R FOG
$$
MNZ037-044-045-052-053-281300-
   East Central Minnesota

CITY           SKY/WX    TMP DP  RH WIND       PRES   REMARKS
PRINCETON      FOG       61  61 100 CALM      30.14R VSB 1/2
MORA           CLOUDY    59  59 100 CALM      30.16R FOG
CAMBRIDGE      FOG       63  59  88 E3        30.12R VSB 1/2
RUSH CITY      LGT RAIN  59  58  97 CALM      30.14R
MOOSE LAKE     CLOUDY    59  57  94 CALM      30.13R FOG
HINCKLEY       CLOUDY    61  61 100 CALM      30.15R FOG
CLOQUET        CLOUDY    59  57  94 S3        30.15R FOG
MCGREGOR       CLOUDY    59  59 100 SE3       30.14R
$$
MNZ071>073-080-081-089-090-097-098-281300-
   Southwest Minnesota

CITY           SKY/WX    TMP DP  RH WIND       PRES   REMARKS
MONTEVIDEO     TSTM      63  63 100 S12       30.09F
GRANITE FALLS  CLOUDY    65  63  91 E5        30.13S THUNDER
CANBY          CLOUDY    66  63  90 SE7       30.09F
MARSHALL       PTCLDY    62  61  96 NE8       30.12R
REDWOOD FALLS  CLOUDY    63  60  90 N10G22    30.12R FOG
OLIVIA         CLOUDY    63  61  94 NW3       30.14R THUNDER
PIPESTONE      CLEAR     64  63  94 S9        30.09R
WINDOM         CLEAR     64  63  94 S3        30.11R
WORTHINGTON    CLEAR     63  62  97 S7        30.11R FOG
JACKSON        FOG       63  61  94 S8        30.12R VSB 1/4
TRACY          PTCLDY    62  61  95 N10       30.12R FOG
SLAYTON        CLEAR     55  55 100 S5        30.12R
$$
MNZ065>067-074>077-082>085-091>093-281300-
   South Central Minnesota

CITY           SKY/WX    TMP DP  RH WIND       PRES   REMARKS
MANKATO        CLEAR     63  59  88 E5        30.13R
NEW ULM          N/A     63  63 100 SE5       30.11R FOG
ST JAMES       PTCLDY    55  55 100 N6        30.13R FOG
FAIRMONT       CLEAR     62  62 100 S7        30.12R FOG
GLENCOE        CLOUDY    59  60 100 E3        30.12R
FARIBAULT      FOG       61  59  94 CALM      30.15R VSB<1/4
OWATONNA       PTCLDY    63  61  94 SE5       30.15R FOG
WASECA         MOCLDY    59  59 100 E5        30.15R FOG
ALBERT LEA     FOG       63  61  94 CALM      30.14R VSB 1/2
$$
MNZ078>079-086>088-094>096-281300-
   Southeast Minnesota

CITY           SKY/WX    TMP DP  RH WIND       PRES   REMARKS
ROCHESTER      FOG       60  60 100 S6        30.16R VSB 1/4
6HR MIN TEMP:  59; 6HR MAX TEMP:  63;

RED WING       DRZL/FOG  64  63  94 CALM      30.14R VSB<1/4
STANTON        CLOUDY    55  55 100 CALM      30.14R VSB<1/4
DODGE CENTER   FOG       57  57 100 S3        30.15R VSB 1/2
WINONA         FOG       64  63  94 CALM      30.15R VSB 1/2
AUSTIN         FOG       61  61 100 CALM      30.15R VSB<1/4
PRESTON        FOG       60  59  96 CALM      30.16S VSB<1/4
$$
ABBREVIATIONS USED IN REMARKS
   TC - TEMPERATURES IN CELSIUS
  WCI - WIND CHILL INDEX
   HX - HEAT INDEX
  VSB - VISIBILITY
$$



USA.gov is the U.S. government's official web portal to all federal, state and local government web resources and services.